Weather in Smara

Morocco     26°43′06″N   11°38′15″W
В апреле 2022 года жителям России запретили посещать сайт meteo.paraplan.net по решению Генеральной прокуратуры. Аудитория сайта уменьшилась в 10 раз. Владельцы сайта не видят смысла в поддержке погодного сервера в таких условиях. Сайт будет закрыт в октябре.
temp.,
°C
wind,
m/s
gust,
m/s
humid.,
%
clouds,
%
prec.,
mm/h
press.,
hPa
HPBL,
m
25 september, sun
sun2501:00+22n71366100 0.0 1014575
04:00+22nne4869100 0.3 1013386
07:00+23nne3865100 0.3 1013375
10:00+24ne5761100 0.0 1014377
13:00+25ne556399 0.0 1013488
16:00+28ne334955 0.0 1011781
19:00+28nne3449100 0.8 1011545
22:00+26ne6760100 0.0 1012314
26 september, mon
mon2601:00+24ne466799 0.4 1012319
04:00+23nne347380 0.1 1011200
07:00+22nne347882 0.1 1012129
10:00+25nne446560 0.0 1013395
13:00+29n115073 0.3 1014772
16:00+31n534479 1.1 1012649
19:00+29e335286 2.5 1013283
22:00+26nne7961100 1.2 1014400
27 september, tue
tue2701:00+24ne7963100 1.2 1015369
04:00+23nne5766100 0.0 1015289
07:00+23nne3465100 0.0 1015169
10:00+25nne345558 0.0 1017316
13:00+31n333939 0.0 1017790
16:00+34n54325 0.0 10151204
19:00+32n763744 0.0 1016808
22:00+25n78552 0.0 1019392
28 september, wed
wed2801:00+24nne57584 0.0 1019320
04:00+23n47610 0.0 1018292
07:00+21n48675 0.0 1018295
10:00+23nne57578 0.0 1019424
13:00+30n673320 0.0 1018784
16:00+32n88274 0.0 10151080
19:00+28n89365 0.0 1015708
22:00+23n685722 0.0 1018463
29 september, thu
thu2901:00+21n6965100 0.0 1018452
04:00+20n6117541 0.0 1016512
07:00+19n510767 0.0 1016492
10:00+22n79685 0.0 1017684
13:00+27n893984 0.0 10161096
16:00+29nnw91034100 0.0 10131339
19:00+25n9104918 0.0 10141080
22:00+21nnw8126916 0.0 1016860